Вернуться в каталог

CZ-6A DEB

АктивенPO
NORAD 55532·DEBRIS·🇨🇳 China

Запущен Nov 11, 2022 с Taiyuan Satellite Launch Center

Loading…

Ближайшие Пролёты (ближайшие 24 часа)

TLE

СвежийSource: Space-Track

Эпоха: Sep 13, 2026, 18:26 UTC

1 55532U 22151YE  26256.76852154  .00027293  00000-0  21695-2 0  9998
2 55532  98.6339 344.2459 0035367 318.6263  41.2280 14.99914230198966

Отслеживайте CZ-6A DEB в реальном времени с AllMySat

Download on the App Store